Weather observations for the past three days for
Van Nuys, Van Nuys Airport
Imperial (Metric)
Date Time (pdt) Wind (mph) Vis. (mi.) Weather Sky Cond. Temperature (ºF) Relative Humidity Wind Chill (°F) Heat Index (°F) Pressure Precipitation (in)
Air Dwpt 6 hour altimeter (in) sea level (mb) 1 hr 3 hr 6 hr
Max. Min.
12 10:51 Calm 5.00 Fair with Haze CLR 75.9 63 75.9 64 64% 78 29.9 1011.7
12 09:51 S 6 3.00 Partly Cloudy with Haze SCT011 71.1 63 76% 29.92 1012.3
12 08:51 S 7 3.00 Mostly Cloudy with Haze BKN010 69.1 63 81% 29.93 1012.6
12 07:51 Calm 3.00 Fog/Mist OVC006 66 62.1 87% 29.91 1011.8
12 06:51 SE 3 2.50 Fog/Mist OVC004 64.9 62.1 90% 29.91 1011.9
12 05:51 S 5 2.50 Fog/Mist OVC003 64 61 90% 29.9 1011.3
12 04:51 SE 7 4.00 Fog/Mist OVC004 64.9 62.1 72 64.9 90% 29.88 1010.8
12 03:51 SE 6 6.00 A Few Clouds with Haze FEW007 66 61 84% 29.87 1010.2
12 02:51 E 5 8.00 Fair CLR 68 61 78% 29.85 1009.7
12 01:51 SE 5 9.00 Fair CLR 69.1 62.1 78% 29.85 1009.9
12 00:51 SE 6 10.00 Fair CLR 71.1 61 71% 29.86 1010.1
11 23:51 E 3 10.00 Fair CLR 72 61 68% 29.87 1010.3
11 22:51 SE 6 10.00 Fair CLR 72 61 96.1 72 68% 29.86 1010.3
11 21:51 SE 7 10.00 Fair CLR 73 62.1 69% 29.86 1010.2
11 20:51 SE 6 10.00 Fair CLR 77 62.1 60% 79 29.84 1009.4
11 19:51 SE 8 10.00 Fair CLR 82 63 53% 83 29.81 1008.5
11 18:51 E 9 10.00 Fair CLR 88 63 43% 89 29.8 1008.0
11 17:51 SE 7 10.00 Fair CLR 93 64 38% 95 29.79 1007.7
11 16:51 SE 8 10.00 Fair CLR 95 66 100 81 39% 98 29.8 1008.0
11 15:51 SE 6 10.00 Fair CLR 97 64 34% 99 29.81 1008.4
11 14:51 Vrbl 3 10.00 Fair CLR 93 64 38% 95 29.84 1009.4
11 13:51 SE 8 10.00 Fair CLR 90 64 42% 91 29.88 1010.7
11 12:51 SE 6 10.00 Fair CLR 89.1 62.1 41% 89 29.89 1011.2
11 11:51 SE 7 10.00 Fair CLR 84.9 63 48% 86 29.9 1011.6
11 10:51 SE 12 10.00 Fair CLR 81 64 82.9 68 57% 83 29.91 1011.9
11 09:51 SE 6 10.00 Fair CLR 80.1 61 52% 81 29.9 1011.6
11 08:51 SE 5 10.00 Fair CLR 77 60.1 56% 79 29.91 1011.8
11 07:51 Calm 10.00 Fair CLR 73.9 59 60% 29.89 1011.1
11 06:51 E 3 10.00 Fair CLR 71.1 57.9 63% 29.86 1010.1
11 05:51 Calm 10.00 Fair CLR 71.1 57.9 63% 29.85 1009.6
11 04:51 Calm 10.00 Fair CLR 71.1 57 75 69.1 61% 29.83 1009.0
11 03:51 S 3 10.00 Fair CLR 69.1 57 66% 29.83 1009.0
11 02:51 SE 3 10.00 Fair CLR 70 57 64% 29.84 1009.4
11 01:51 SE 3 10.00 Fair CLR 71.1 57 61% 29.85 1009.7
11 00:51 E 3 10.00 Fair CLR 71.1 57.9 63% 29.87 1010.2
10 23:51 E 6 10.00 Fair CLR 73 60.1 64% 29.87 1010.3
10 22:51 SE 3 10.00 Light Rain CLR 75 62.1 96.1 75 64% 77 29.86 1010.1
10 21:51 E 7 10.00 Light Rain CLR 79 62.1 56% 80 29.85 1009.6
10 20:51 SE 6 10.00 Fair CLR 84.9 64.9 51% 87 29.83 1008.9
10 19:51 SE 5 10.00 Fair CLR 89.1 63 42% 90 29.81 1008.4
10 18:51 E 5 10.00 Fair CLR 93.9 62.1 35% 95 29.81 1008.3
10 17:51 E 7 10.00 Fair CLR 95 61 32% 95 29.81 1008.4
10 16:51 SE 9 10.00 Fair CLR 96.1 61 100 89.1 31% 97 29.82 1008.6
10 15:51 SE 8 10.00 Fair CLR 99 61 29% 100 29.83 1008.8
10 14:51 S 8 10.00 Fair CLR 98.1 62.1 31% 99 29.84 1009.5
10 13:51 Vrbl 6 10.00 Fair CLR 97 60.1 29% 97 29.86 1009.9
10 12:51 SE 8 10.00 Fair CLR 93 63 37% 94 29.87 1010.5
10 11:51 E 8 10.00 Fair CLR 93 63 37% 94 29.88 1010.6
10 10:51 Vrbl 5 10.00 Fair CLR 90 59 90 70 35% 89 29.87 1010.5
10 09:51 SE 5 10.00 Fair CLR 84 62.1 48% 85 29.87 1010.4
10 08:51 S 3 9.00 Fair CLR 79 62.1 56% 80 29.86 1010.3
10 07:51 Calm 10.00 Fair CLR 75 62.1 64% 77 29.86 1010.0
10 06:51 Calm 10.00 Fair CLR 71.1 61 71% 29.83 1009.1
10 05:51 Calm 10.00 Fair CLR 70 61 73% 29.82 1008.9
10 04:51 S 3 10.00 Fair CLR 70 60.1 77 70 71% 29.82 1008.8
10 03:51 NE 3 10.00 Fair CLR 71.1 60.1 68% 29.82 1008.6
10 02:51 SE 5 10.00 Fair CLR 72 60.1 66% 29.82 1008.6
10 01:51 Calm 10.00 Fair CLR 73 60.1 64% 29.82 1008.5
10 00:51 E 6 10.00 Fair CLR 73.9 60.1 62% 29.82 1008.8
09 23:51 E 3 10.00 Fair CLR 75.9 59 56% 78 29.83 1008.8
09 22:51 SE 3 10.00 Fair CLR 77 59 95 77 54% 79 29.82 1008.9
09 21:51 E 6 10.00 Fair CLR 79 59 50% 80 29.82 1008.8
09 20:51 E 6 10.00 Fair CLR 81 57.9 45% 81 29.81 1008.3
09 19:51 E 6 10.00 Fair CLR 84.9 57 39% 84 29.79 1007.9
09 18:51 E 9 10.00 Fair CLR 87.1 57.9 37% 86 29.79 1007.7
09 17:51 E 10 10.00 Fair CLR 91 60.1 35% 91 29.78 1007.3
09 16:51 SE 9 10.00 Fair CLR 93.9 60.1 96.1 84 32% 94 29.78 1007.3
09 15:51 SE 12 10.00 Fair CLR 95 63 35% 96 29.79 1007.7
09 14:51 S 9 10.00 Fair CLR 96.1 62.1 32% 97 29.81 1008.1
09 13:51 S 9 10.00 Fair CLR 96.1 63 34% 98 29.81 1008.4
09 12:51 E 8 10.00 Fair CLR 93 61 34% 93 29.82 1008.8
09 11:51 E 6 10.00 Fair CLR 88 63 43% 89 29.83 1009.1
Date Time (pdt) Wind (mph) Vis. (mi.) Weather Sky Cond. Air Dwpt Max. Min. Relative Humidity Wind Chill (°F) Heat Index (°F) altimeter (in) sea level (mb) 1 hr 3 hr 6 hr
6 hour
Temperature (ºF) Pressure Precipitation (in)